Regional Weather Roundup
Issued by NWS San Diego, CA

Home | Current Version | Previous Version | Text Only | Print | Product List | Glossary On
Versions: 1 2 3 4 5 6 7 8 9 10 11 12 13 14 15 16 17 18 19 20 21 22 23 24 25 26 27 28 29 30 31 32 33 34 35 36 37 38 39 40 41 42 43 44 45 46 47 48 49 50
000
ASUS46 KSGX 201511
RWRSGX

SAN DIEGO HOURLY WEATHER ROUNDUP
NATIONAL WEATHER SERVICE SAN DIEGO CA
800 AM PDT WED SEP 20 2017

NOTE: "FAIR" INDICATES FEW OR NO CLOUDS BELOW 12,000 FEET WITH NO
SIGNIFICANT WEATHER AND/OR OBSTRUCTIONS TO VISIBILITY.

CAZ042-043-060-061-PZZ750-775-201600-

GREATER SAN DIEGO AREA

CITY           SKY/WX    TMP DP  RH WIND       PRES   REMARKS
SAN DIEGO AP   PTSUNNY   68  59  73 S10       29.92R
NATIONAL CITY    N/A     69  60  71 SE2       29.93R
CHULA VISTA      N/A     68  60  76 CALM      29.82R
IMPERIAL BEACH CLOUDY    68  57  68 S8        29.91R
BROWN FIELD    PTSUNNY   67  58  72 SE7       29.91R
MIRAMAR MCAS   CLOUDY    72  58  61 S6        29.91R
MONTGOMERY FLD CLOUDY    70  57  63 S8        29.91R
GILLESPIE FLD  PTSUNNY   66  55  68 VRB7      29.91R

$$

NORTH SAN DIEGO COUNTY

CITY           SKY/WX    TMP DP  RH WIND       PRES   REMARKS
CAMP PENDLETON CLOUDY    71  60  68 CALM      29.89R
OCEANSIDE AP   CLOUDY    70  61  73 S5        29.88R
OCEANSIDE HBR    N/A     68  63  83 SW9       29.91R
VISTA            N/A     68  61  79 CALM      29.87R
CARLSBAD       CLOUDY    69  60  73 S7        29.89R
DEL MAR          N/A     68  61  79 CALM      29.91R
LA JOLLA SCRIP   N/A     68  61  78 SE6       29.89R
FALLBROOK        N/A     67  62  84 CALM      29.90R
ESCONDIDO        N/A     67  58  73 CALM      29.91R
SAN MARCOS       N/A     67  59  77 CALM      29.91R
POWAY            N/A     66  58  75 CALM      29.91R

$$

EAST SAN DIEGO COUNTY

CITY           SKY/WX    TMP DP  RH WIND       PRES   REMARKS
RAMONA         MOSUNNY   62  56  80 E5        29.92R
SANTEE LAKES     N/A     66  58  76 CALM      29.89R
LA MESA          N/A     65  58  79 CALM      29.83R
JAMUL            N/A     61  57  87 CALM      29.91R
DESCANSO N       N/A     58  28  31 NE3       29.86R
CAMPO            N/A     52  46  80 CALM      29.91R

$$

ORANGE COUNTY AND THE LOS ANGELES BASIN

CITY           SKY/WX    TMP DP  RH WIND       PRES   REMARKS
JOHN WAYNE AP  PTSUNNY   69  59  70 SE7       29.89R
LAGUNA BEACH     N/A     69  62  78 N2        29.84R
LAKE FOREST FR   N/A     65  54  68 CALM      29.78R
HUNTINGTON BCH   N/A     64  62  91 CALM      29.90R
LOS ALAMITOS   MOSUNNY   67  61  83 CALM      29.88R
FULLERTON      MOSUNNY   68  62  81 CALM      29.88R
LONG BEACH     SUNNY     67  61  81 CALM      29.89R
L.A. AP        MOSUNNY   67  61  81 E3        29.89R
L.A. DOWNTOWN  MOSUNNY   67  59  75 CALM      29.88R

$$

THE INLAND EMPIRE

CITY           SKY/WX    TMP DP  RH WIND       PRES   REMARKS
CORONA         CLOUDY    66  59  78 MISG      29.91R
CHINO          CLOUDY    68  58  70 NW6       29.91R
ONTARIO        CLOUDY    65  58  78 W7        29.90R
SAN BERNARDINO CLOUDY    66  57  72 W3        29.91R HAZE
RIVERSIDE AP   CLOUDY    65  60  84 W6        29.90R
MORENO VALLEY    N/A     62  60  90 SE2       28.03R
MARCH ARB      CLOUDY    64  57  79 SE7       29.91R
HORSETHIEF CYN   N/A     63  56  78 CALM      29.89R
PERRIS           N/A     62  58  87 S3          N/A
HEMET EAST       N/A     60  51  71 CALM      29.94R
FRENCH VALLEY  FAIR      61  55  82 CALM      29.92R
TEMECULA         N/A     63  58  84 S2        29.95S

$$

SAN BERNARDINO AND RIVERSIDE COUNTY MOUNTAINS

CITY           SKY/WX    TMP DP  RH WIND       PRES   REMARKS
BIG BEAR AP    SUNNY     46  32  57 CALM      30.08R
ANGELUS OAKS     N/A     54  32  42 CALM      29.74R
PINE COVE        N/A     59  32  35 CALM      29.78

$$

SOUTHERN DESERT INCLUDING THE COACHELLA VALLEY

CITY           SKY/WX    TMP DP  RH WIND       PRES   REMARKS
PALM SPRINGS   SUNNY     74  55  51 CALM      29.80R
THOUSAND PALMS   N/A     73  56  54 NW15      29.75R
PALM DESERT      N/A     71  61  70 CALM      31.93S
THERMAL        SUNNY     75  57  53 NW13      29.75R
BLYTHE         SUNNY     74  48  39 CALM      29.78R
IMPERIAL AP    SUNNY     72  46  39 CALM      29.75S
EL CENTRO NAS  SUNNY     73  44  35 SE6       29.77S
YUMA AZ        SUNNY     79  54  41 N5        29.77R
MEXICALI       SUNNY     75  45  33 CALM      29.77R

$$

UPPER DESERT

CITY           SKY/WX    TMP DP  RH WIND       PRES   REMARKS
VICTORVILLE AP SUNNY     61  34  36 CALM      29.92R
HESPERIA         N/A     58  53  84 SW2       29.95R
PALMDALE       SUNNY     59  42  53 S3        29.91R
LANCASTER      SUNNY     64  35  34 W22       29.89S
EDWARDS AFB    SUNNY     63  37  37 SW18      29.86R
DAGGETT        SUNNY     64  39  39 W12       29.86R
29 PALMS N     SUNNY     70  39  32 W9        29.92R
NEEDLES        SUNNY     83  43  24 CALM      29.79R

$$

REGIONAL REPORTS

CITY           SKY/WX    TMP DP  RH WIND       PRES   REMARKS
SANTA BARBARA  SUNNY     60  55  83 CALM      29.87R
SANDBERG       SUNNY     56  34  43 NW35G44   29.99R
LAS VEGAS NV   SUNNY     73  42  32 S3        29.81R
PHOENIX AZ     SUNNY     77  49  37 SE7       29.85R
TIJUANA        PTSUNNY   66  59  77 CALM      29.94R
ENSENADA NW      N/A     65  32  29 E10       29.91R

$$

OFFSHORE ISLANDS

CITY           SKY/WX    TMP DP  RH WIND       PRES   REMARKS
CATALINA ARPT  PTSUNNY   61  61 100 S3        29.92R
SAN NICOLAS IS MOSUNNY   64  58  80 CALM      29.88R

$$

MARINE AND OFFSHORE BUOY REPORTS

STATION/POSITION SKY/WX   TEMP    WIND        PRES    VSBY  SWELL
                          AIR SEA DIR/SP/G                  HT/PER/DIR
                          (F)     (DEG/KT/KT) (MB)    (MI)  (FT/S/D)
TANNER BANKS               65 67  310/ 19/ 21 1011.4R         7/330/ 9
S CLEMENTE BASIN           66 71  210/  8/ 10 1012.2R         5/280/ 8
SAN NICOLAS IS.               65                N/A           5/320/15
SO. S. ROSA ISLA           62 64  330/ 16/ 19 1011.4R         8/320/15
W. S. BARBARA CH           60 62  320/ 16/ 19 1011.5R         7/310/15
M. S. BARBARA CH           66 66   80/  6/  8 1012.2R         3/260/ 8
S. MONICA BASIN               66   90/  4/  6 1011.4R         2/230/10
S PEDRO CHANNEL               68                N/A           2/170/11
CMP PENDLETON NS              69                N/A           2/210/11
OCEANSIDE OFFSHR              70                N/A           2/180/12
TORREY PINES OTR              70                N/A           2/240/15
SAN DIEGO BAY                 72              1013.0R
POINT LOMA SOUTH              72                N/A           2/250/15

$$




USA.gov is the U.S. government's official web portal to all federal, state and local government web resources and services.